[[{"header":{"parameterUnit":"m.s-1","parameterCategory":1,"la1":30.2991,"la2":30.254,"lo1":-89.0895,"lo2":-89.0444,"dy":0.0017,"dx":0.0017,"nx":28,"ny":28,"refTime":"2025-08-26T03:00:00:Z","depth":0,"parameterNumber":2,"parameterNumberName":"U-component_of_WINDS"},"data":[0,0,0,0,0,0,0,0,0,0,0,0,0,0,0,0,0,0,0,0,0,0,0,0,0,0,0,0,0,0,0,0,0,0,0,0,0,0,0,0,0,0,0,0,0,0,0,0,0,0,0,0,0,0,0,0,0,0,-1.393,-1.3931,0,-1.3984,-1.3985,-1.3985,-1.3967,-1.3965,-1.3964,-1.3963,-1.4017,-1.402,-1.4022,0,0,0,0,0,0,0,0,0,0,0,0,0,-1.381,-1.3812,-1.393,-1.3931,-1.3932,-1.3984,-1.3985,-1.3985,-1.3967,-1.3965,-1.3964,-1.3963,-1.4016,-1.4019,-1.4022,0,0,0,0,0,0,0,0,0,0,0,0,0,-1.3863,-1.3813,-1.393,-1.3929,-1.3929,-1.3984,-1.3985,-1.3985,-1.3967,-1.3965,-1.3964,-1.3962,-1.4015,-1.4019,-1.4023,-1.4082,0,0,-1.4034,-1.4036,0,0,0,0,0,0,0,0,-1.386,-1.3867,-1.3928,-1.3929,-1.3929,-1.3967,-1.3962,-1.4018,-1.3968,-1.3953,-1.3963,-1.3961,-1.4002,-1.4007,-1.402,-1.4084,-1.4087,-1.4035,-1.4037,-1.4039,-1.404,0,0,0,0,0,0,0,-1.3856,-1.3865,-1.3951,-1.3929,-1.393,-1.3925,-1.393,-1.3972,-1.3986,-1.3954,-1.3953,-1.3959,-1.4002,-1.4017,-1.4022,-1.4087,-1.4035,-1.4038,-1.404,-1.4042,-1.42,-1.4202,0,0,0,0,0,0,-1.3852,-1.3862,-1.395,-1.3953,-1.3889,-1.3928,-1.3934,-1.3957,-1.3986,-1.3989,-1.3961,-1.3958,-1.4011,-1.4017,-1.4023,-1.4093,-1.4039,-1.4042,-1.4044,-1.4198,-1.42,-1.4202,0,0,0,0,0,0,-1.385,-1.386,-1.3948,-1.3907,-1.3918,-1.3932,-1.3957,-1.3959,-1.3974,-1.3991,-1.3993,-1.3974,-1.401,-1.4018,-1.4067,-1.4094,-1.4044,-1.4047,-1.4196,-1.4199,-1.4201,-1.4233,0,0,0,0,0,0,-1.3846,-1.3859,-1.3883,-1.3908,-1.392,-1.3991,-1.3959,-1.3961,-1.398,-1.3978,-1.4004,-1.4007,-1.4009,-1.4061,-1.4071,-1.4099,-1.405,-1.4193,-1.4197,-1.42,-1.4229,-1.4236,-1.4243,0,0,0,0,0,-1.3842,-1.389,-1.3884,-1.3895,-1.3949,-1.3993,-1.3999,-1.4002,-1.3983,-1.4005,-1.4016,-1.4006,-1.409,-1.4066,-1.4077,-1.4106,-1.4192,-1.4196,-1.42,-1.4226,-1.4235,-1.4242,0,0,0,0,0,0,-1.3867,-1.3893,-1.3887,-1.3944,-1.3966,-1.3989,-1.4018,-1.4011,-1.4039,-1.4035,-1.4037,-1.4043,-1.4093,-1.4105,-1.4078,-1.4164,-1.4138,-1.4144,-1.4154,-1.4163,-1.4169,-1.4164,-1.4053,0,0,0,0,0,-1.3879,-1.3913,-1.3933,-1.3982,-1.3993,-1.4004,-1.4023,-1.4023,-1.4046,-1.4055,-1.407,-1.4092,-1.4123,-1.4144,-1.4174,-1.4231,-1.4236,-1.4257,-1.4263,-1.4268,-1.4274,-1.4303,-1.4312,-1.4217,-1.4217,-1.4216,0,0,-1.3905,-1.3923,-1.3944,-1.3987,-1.4004,-1.4038,-1.4012,-1.4049,-1.4074,-1.406,-1.4107,-1.4119,-1.4143,-1.4196,-1.422,-1.4208,-1.4301,-1.4274,-1.4278,-1.4281,-1.4308,-1.4318,-1.4326,-1.4219,-1.4219,-1.4218,0,0,-1.3968,-1.3986,-1.4028,-1.4045,-1.4071,-1.4078,-1.4088,-1.4112,-1.4119,-1.4166,-1.4156,-1.4185,-1.424,-1.4257,-1.4273,-1.4342,-1.4332,-1.4352,-1.4385,-1.4414,-1.4422,-1.4428,-1.4451,-1.4459,-1.4357,-1.4357,-1.4357,0,-1.3996,-1.4047,-1.405,-1.4087,-1.4106,-1.4095,-1.4136,-1.4153,-1.4188,-1.4201,-1.4186,-1.4253,-1.4269,-1.4325,-1.4342,-1.4356,-1.4366,-1.4348,-1.442,-1.4427,-1.4433,-1.4455,-1.4464,-1.4359,-1.4359,-1.4359,-1.4359,0,-1.408,-1.4115,-1.4146,-1.4179,-1.4201,-1.424,-1.4247,-1.4269,-1.4267,-1.4275,-1.4322,-1.4341,-1.4373,-1.4387,-1.4385,-1.4442,-1.4433,-1.442,-1.4393,-1.4444,-1.4465,-1.4473,-1.4362,-1.4362,-1.4361,-1.436,0,0,-1.4161,-1.4194,-1.4205,-1.4219,-1.4247,-1.4274,-1.4312,-1.4344,-1.4362,-1.4386,-1.4417,-1.4463,-1.445,-1.4468,-1.4469,-1.4494,-1.4545,-1.4477,-1.4477,-1.4487,-1.4606,-1.4615,-1.4625,-1.4539,-1.4541,-1.4542,-1.4604,0,-1.4225,-1.4292,-1.4295,-1.4356,-1.4387,-1.4377,-1.441,-1.443,-1.4439,-1.4466,-1.4475,-1.4506,-1.4488,-1.4499,-1.4523,-1.4533,-1.4568,-1.4529,-1.4566,-1.4568,-1.4559,-1.4636,-1.4646,-1.4703,-1.4612,-1.4613,-1.4614,0,-1.4309,-1.4335,-1.4399,-1.4421,-1.4434,-1.4464,-1.4493,-1.452,-1.4542,-1.4545,-1.4565,-1.4561,-1.4599,-1.4572,-1.4623,-1.4596,-1.4612,-1.4619,-1.4621,-1.4624,-1.4593,-1.4639,-1.4722,-1.473,-1.4627,-1.4626,-1.4625,0,-1.4359,-1.4411,-1.4455,-1.4468,-1.4495,-1.4516,-1.4528,-1.4548,-1.4566,-1.4591,-1.4603,-1.4632,-1.4648,-1.467,-1.4674,-1.4654,-1.4724,-1.4698,-1.4727,-1.4727,-1.4742,-1.474,-1.4826,-1.4754,-1.4754,-1.4754,-1.4754,0,-1.443,-1.4469,-1.4478,-1.4505,-1.4548,-1.455,-1.4592,-1.4603,-1.4621,-1.4649,-1.4643,-1.4669,-1.4673,-1.47,-1.4703,-1.4744,-1.4752,-1.4755,-1.4755,-1.4754,-1.4754,-1.4764,-1.4759,-1.4756,-1.4756,-1.4755,-1.4755,0,-1.4492,-1.45,-1.4548,-1.4569,-1.4575,-1.4606,-1.4624,-1.4649,-1.4656,-1.4692,-1.4701,-1.4712,-1.4743,-1.4749,-1.4787,-1.4789,-1.4836,-1.4833,-1.4829,-1.4828,-1.4856,-1.4853,-1.495,-1.4962,-1.4884,-1.4885,-1.4885,0,-1.4536,-1.4566,-1.459,-1.4609,-1.4622,-1.4652,-1.4671,-1.4674,-1.4693,-1.472,-1.4742,-1.4773,-1.4797,-1.4848,-1.4858,-1.4887,-1.4883,-1.4915,-1.4887,-1.4885,-1.4881,-1.4879,-1.4881,-1.492,-1.4921,-1.4922,-1.4922,0,-1.4612,-1.4614,-1.4642,-1.467,-1.4693,-1.4716,-1.4737,-1.4752,-1.4758,-1.478,-1.4812,-1.4831,-1.4869,-1.4899,-1.4927,-1.4938,-1.4931,-1.4931,-1.4939,-1.4938,-1.4934,-1.4935,-1.4842,-1.4929,-1.4928,-1.4928,-1.4927,-1.4927,-1.4666,-1.4691,-1.4712,-1.4742,-1.4758,-1.4778,-1.4803,-1.4813,-1.484,-1.487,-1.4871,-1.4905,-1.4925,-1.4961,-1.4975,-1.5001,-1.4991,-1.5003,-1.5005,-1.5008,-1.5009,-1.4931,-1.5006,-1.5006,-1.5006,-1.5006,-1.5006,0,-1.474,-1.4753,-1.4781,-1.4811,-1.4834,-1.4826,-1.4849,-1.4868,-1.4899,-1.4918,-1.4942,-1.4978,-1.5007,-1.502,-1.5048,-1.5066,-1.5063,-1.5073,-1.5071,-1.5074,-1.5018,-1.5007,-1.5075,-1.5075,-1.5075,-1.5075,-1.5075,-1.5075,-1.4781,-1.4823,-1.4828,-1.4877,-1.4889,-1.4923,-1.4936,-1.4954,-1.4969,-1.501,-1.5033,-1.5042,-1.5058,-1.5087,-1.5112,-1.5115,-1.5125,-1.5136,-1.5137,-1.5085,-1.5078,-1.5071,-1.5061,-1.5139,-1.5139,-1.5191,-1.5191,-1.5191]},{"header":{"parameterUnit":"m.s-1","parameterCategory":1,"la1":30.2991,"la2":30.254,"lo1":-89.0895,"lo2":-89.0444,"dy":0.0017,"dx":0.0017,"nx":28,"ny":28,"refTime":"2025-08-26T03:00:00:Z","depth":0,"parameterNumber":3,"parameterNumberName":"V-component_of_WINDS"},"data":[0,0,0,0,0,0,0,0,0,0,0,0,0,0,0,0,0,0,0,0,0,0,0,0,0,0,0,0,0,0,0,0,0,0,0,0,0,0,0,0,0,0,0,0,0,0,0,0,0,0,0,0,0,0,0,0,0,0,-3.2134,-3.2136,0,-3.2251,-3.2252,-3.2254,-3.2273,-3.2272,-3.2271,-3.227,-3.2383,-3.2387,-3.239,0,0,0,0,0,0,0,0,0,0,0,0,0,-3.1921,-3.1925,-3.2134,-3.2136,-3.2137,-3.2251,-3.2252,-3.2254,-3.2273,-3.2272,-3.227,-3.2269,-3.2381,-3.2386,-3.2391,0,0,0,0,0,0,0,0,0,0,0,0,0,-3.2023,-3.1926,-3.2134,-3.216,-3.2164,-3.225,-3.2252,-3.2254,-3.2273,-3.2272,-3.227,-3.2269,-3.238,-3.2386,-3.2391,-3.2458,0,0,-3.2409,-3.2412,0,0,0,0,0,0,0,0,-3.2017,-3.2031,-3.2155,-3.2159,-3.2163,-3.2246,-3.2219,-3.2322,-3.2273,-3.2231,-3.227,-3.2268,-3.2338,-3.2347,-3.2372,-3.2463,-3.2468,-3.241,-3.2414,-3.2416,-3.2418,0,0,0,0,0,0,0,-3.201,-3.2026,-3.218,-3.2157,-3.2162,-3.2164,-3.2177,-3.2238,-3.2291,-3.2235,-3.2237,-3.2251,-3.234,-3.2366,-3.2375,-3.247,-3.241,-3.2415,-3.2419,-3.2421,-3.2619,-3.2621,0,0,0,0,0,0,-3.1999,-3.202,-3.2176,-3.2184,-3.2085,-3.2169,-3.2184,-3.2221,-3.2291,-3.23,-3.2252,-3.2251,-3.2357,-3.2368,-3.2379,-3.246,-3.2416,-3.2422,-3.2425,-3.2617,-3.2619,-3.2621,0,0,0,0,0,0,-3.1995,-3.2013,-3.2172,-3.2103,-3.2123,-3.2175,-3.2216,-3.2224,-3.225,-3.2304,-3.2312,-3.227,-3.2356,-3.2371,-3.2438,-3.2464,-3.2424,-3.243,-3.2615,-3.2618,-3.262,-3.2624,0,0,0,0,0,0,-3.1989,-3.2012,-3.2039,-3.2103,-3.2127,-3.2231,-3.2218,-3.2227,-3.2261,-3.2262,-3.2323,-3.2331,-3.2356,-3.2429,-3.2444,-3.2472,-3.2434,-3.2613,-3.2616,-3.2619,-3.2621,-3.2626,-3.263,0,0,0,0,0,-3.1981,-3.2034,-3.204,-3.2059,-3.2162,-3.2232,-3.2246,-3.2275,-3.2263,-3.229,-3.2324,-3.2329,-3.246,-3.2436,-3.2453,-3.2483,-3.2612,-3.2615,-3.2619,-3.2619,-3.2625,-3.263,0,0,0,0,0,0,-3.1969,-3.2043,-3.205,-3.2126,-3.2173,-3.2236,-3.227,-3.228,-3.233,-3.2328,-3.236,-3.2374,-3.2439,-3.2468,-3.244,-3.255,-3.2534,-3.2542,-3.2529,-3.2534,-3.2539,-3.253,-3.2439,0,0,0,0,0,-3.1976,-3.2029,-3.209,-3.215,-3.2174,-3.2218,-3.225,-3.2269,-3.2317,-3.2337,-3.2376,-3.2421,-3.2472,-3.2505,-3.2555,-3.2626,-3.2638,-3.2655,-3.2659,-3.2662,-3.2668,-3.2706,-3.2713,-3.2634,-3.2634,-3.2634,0,0,-3.1989,-3.2036,-3.2067,-3.2149,-3.2188,-3.224,-3.2234,-3.229,-3.2328,-3.2345,-3.2411,-3.2441,-3.2494,-3.2563,-3.2595,-3.2589,-3.2693,-3.2667,-3.2669,-3.2673,-3.271,-3.2718,-3.2724,-3.2637,-3.2636,-3.2636,0,0,-3.204,-3.2081,-3.2136,-3.2175,-3.2235,-3.2264,-3.2277,-3.2338,-3.2359,-3.2427,-3.244,-3.2485,-3.2573,-3.261,-3.264,-3.2705,-3.2711,-3.272,-3.2742,-3.2778,-3.2785,-3.279,-3.2812,-3.2819,-3.2725,-3.2725,-3.2725,0,-3.2048,-3.2129,-3.2162,-3.2218,-3.2253,-3.2272,-3.2327,-3.2362,-3.2434,-3.2456,-3.2449,-3.2559,-3.2596,-3.2673,-3.2689,-3.2714,-3.2728,-3.2712,-3.2781,-3.2787,-3.2793,-3.2814,-3.2822,-3.2726,-3.2726,-3.2726,-3.2726,0,-3.2136,-3.2192,-3.2229,-3.2299,-3.2339,-3.2393,-3.2432,-3.2468,-3.2483,-3.2512,-3.258,-3.2625,-3.2684,-3.2704,-3.2719,-3.2783,-3.2777,-3.2775,-3.276,-3.2801,-3.2821,-3.2829,-3.2727,-3.2727,-3.2727,-3.2726,0,0,-3.2181,-3.2271,-3.2283,-3.2315,-3.2382,-3.2425,-3.2479,-3.254,-3.2568,-3.2617,-3.2662,-3.2736,-3.2735,-3.2769,-3.2788,-3.282,-3.2867,-3.2814,-3.2816,-3.2821,-3.2938,-3.2938,-3.2947,-3.2872,-3.2873,-3.2875,-3.2933,0,-3.2239,-3.2339,-3.237,-3.2453,-3.2504,-3.2523,-3.2571,-3.2615,-3.2644,-3.269,-3.2721,-3.2772,-3.2767,-3.2788,-3.2821,-3.2854,-3.289,-3.285,-3.2912,-3.2913,-3.2896,-3.2958,-3.2959,-3.3012,-3.2942,-3.2943,-3.2944,0,-3.2319,-3.2371,-3.2459,-3.252,-3.2542,-3.2584,-3.2641,-3.2686,-3.2736,-3.2755,-3.2793,-3.281,-3.2865,-3.2848,-3.2923,-3.2895,-3.2922,-3.2942,-3.2945,-3.295,-3.293,-3.2964,-3.303,-3.3037,-3.2957,-3.2956,-3.2955,0,-3.2341,-3.2433,-3.2498,-3.2525,-3.2597,-3.2626,-3.2657,-3.2707,-3.274,-3.2789,-3.2811,-3.2865,-3.2894,-3.2935,-3.2965,-3.295,-3.3037,-3.3023,-3.3052,-3.3051,-3.3068,-3.3066,-3.3137,-3.3088,-3.3088,-3.3088,-3.3087,0,-3.2401,-3.2454,-3.2509,-3.2549,-3.2608,-3.2643,-3.2699,-3.2731,-3.2775,-3.2819,-3.2839,-3.2879,-3.2917,-3.2962,-3.2986,-3.3044,-3.3057,-3.3072,-3.3077,-3.3069,-3.3067,-3.3086,-3.3083,-3.309,-3.3089,-3.3089,-3.3088,0,-3.2435,-3.2475,-3.2546,-3.2609,-3.2626,-3.2667,-3.272,-3.2758,-3.2787,-3.2843,-3.2858,-3.2904,-3.2958,-3.2993,-3.3061,-3.3077,-3.314,-3.3145,-3.3123,-3.3125,-3.3152,-3.3148,-3.3237,-3.3249,-3.3192,-3.3193,-3.3193,0,-3.247,-3.2512,-3.258,-3.2612,-3.2644,-3.2695,-3.273,-3.2766,-3.2801,-3.2862,-3.2892,-3.2948,-3.2994,-3.3079,-3.3117,-3.3169,-3.3174,-3.3202,-3.3182,-3.3173,-3.3173,-3.3169,-3.3173,-3.3204,-3.3205,-3.3205,-3.3205,0,-3.2527,-3.2545,-3.2596,-3.2654,-3.2696,-3.2742,-3.2788,-3.2813,-3.2856,-3.2894,-3.2951,-3.2987,-3.3058,-3.3112,-3.3168,-3.3197,-3.3208,-3.3212,-3.3221,-3.3212,-3.3198,-3.3205,-3.313,-3.3209,-3.3209,-3.3208,-3.3208,-3.3208,-3.2562,-3.26,-3.2653,-3.2709,-3.2748,-3.2791,-3.283,-3.2865,-3.2914,-3.2976,-3.2993,-3.3052,-3.31,-3.3176,-3.3207,-3.3252,-3.3248,-3.3261,-3.3265,-3.3267,-3.3267,-3.3192,-3.3262,-3.3262,-3.3262,-3.3262,-3.3262,0,-3.2619,-3.2655,-3.2706,-3.2771,-3.2815,-3.2824,-3.2875,-3.291,-3.2962,-3.3008,-3.3054,-3.3118,-3.3171,-3.3214,-3.3268,-3.3295,-3.3301,-3.3308,-3.3305,-3.3312,-3.3268,-3.3254,-3.3302,-3.3302,-3.3302,-3.3302,-3.3302,-3.3302,-3.2654,-3.2717,-3.2741,-3.2823,-3.2858,-3.2918,-3.2946,-3.2985,-3.3021,-3.3093,-3.3138,-3.3167,-3.321,-3.3268,-3.3316,-3.3327,-3.3345,-3.335,-3.3362,-3.3319,-3.3315,-3.3311,-3.3297,-3.3354,-3.3354,-3.3402,-3.3402,-3.3403]}]]